Location: Newark
(45.5167°N, 11.1667°E)
Time: 04:18:07
(UTC+00:00)

Envisat - Visible Passes

Search period start: 18 November 2019 00:00
Search period end: 28 November 2019 00:00
Orbit: 764 x 766 km, 98.1° (Epoch: 17 November)

Date Brightness Start Highest point End Pass type
(mag) Time Alt. Az. Time Alt. Az. Time Alt. Az.
18 Nov 5.9 04:59:39 10° NE 05:03:07 18° E 05:06:35 10° SE visible
18 Nov 3.7 16:16:03 10° SE 16:20:27 31° ENE 16:24:52 10° N visible
18 Nov 4.5 17:54:41 10° SSW 17:59:22 37° W 18:04:05 10° NNW visible
19 Nov 3.1 17:17:24 10° S 17:22:29 79° WSW 17:27:36 10° NNW visible
20 Nov 5.2 05:24:22 10° NNE 05:28:52 31° E 05:33:19 10° SSE visible
20 Nov 3.1 16:40:54 10° SE 16:45:46 50° ENE 16:50:41 10° N visible
20 Nov 5.4 18:21:10 10° SW 18:25:04 22° W 18:29:00 10° NW visible
21 Nov 6.1 04:48:57 10° NE 04:51:43 15° E 04:54:28 10° ESE visible
21 Nov 4.0 16:05:12 10° ESE 16:09:16 25° ENE 16:13:22 10° N visible
21 Nov 4.1 17:43:10 10° S 17:48:02 46° W 17:52:56 10° NNW visible
22 Nov 4.1 05:49:31 10° NNE 05:54:30 52° E 05:59:27 10° S visible
22 Nov 2.9 17:06:07 10° SSE 17:11:12 84° ENE 17:16:19 10° NNW visible
22 Nov 6.1 18:48:38 10° WSW 18:50:53 13° W 18:53:08 10° WNW visible
23 Nov 5.5 05:13:21 10° NE 05:17:30 25° E 05:21:37 10° SSE visible
23 Nov 3.4 16:29:51 10° SE 16:34:34 40° ENE 16:39:18 10° N visible
23 Nov 5.0 18:09:24 10° SSW 18:13:42 27° W 18:18:01 10° NW visible
24 Nov 6.3 04:38:42 10° ENE 04:40:17 11° E 04:41:52 10° ESE visible
24 Nov 3.6 17:31:44 10° S 17:36:43 58° W 17:41:45 10° NNW visible
25 Nov 4.5 05:38:22 10° NNE 05:43:11 41° E 05:47:58 10° SSE visible
25 Nov 2.9 16:54:55 10° SSE 16:59:56 68° ENE 17:05:00 10° N visible
25 Nov 5.8 18:36:20 10° SW 18:39:27 16° W 18:42:36 10° NW visible
26 Nov 5.9 05:02:25 10° NE 05:06:07 20° E 05:09:47 10° SE visible
26 Nov 3.6 16:18:52 10° SE 16:23:22 33° ENE 16:27:53 10° N visible
26 Nov 4.6 17:57:45 10° SSW 18:02:20 34° W 18:06:57 10° NNW visible
27 Nov 3.2 17:20:22 10° S 17:25:25 73° WSW 17:30:32 10° NNW visible
